"Time","Temp","Dewpoint","Humidity","Pressure","Direction","Speed","Gust","Precip","PrecipRate"
"00:04:58","78.9","72.8","81.7","30.01","190","2.7","7","0.00","0.00"
"00:09:57","78.8","72.8","82","30.01","184","2.2","5.8","0.00","0.00"
"00:14:59","78.7","72.7","82","30.01","194","2.1","5","0.00","0.00"
"00:19:59","78.5","72.7","82.5","30.01","202","1.7","5","0.00","0.00"
"00:24:59","78.4","72.8","83","30.01","166","2","4","0.00","0.00"
"00:29:58","78.3","72.8","83.1","30.01","158","2.1","5","0.00","0.00"
"00:34:58","78.2","73","84","30.01","177","3.1","9.2","0.00","0.00"
"00:39:56","78.1","72.9","84","30.01","173","3.3","6","0.00","0.00"
"00:44:56","78","73","84.7","30.01","170","2.9","6","0.00","0.00"
"00:49:59","77.9","73","85","30.01","186","2.4","7","0.00","0.00"
"00:54:59","77.8","72.9","85","30.01","181","1.8","7","0.00","0.00"
"00:59:57","77.7","72.8","85","30.01","195","2.3","6","0.00","0.00"
"01:04:58","77.5","72.6","85","30.01","185","2.4","5","0.00","0.00"
"01:09:59","77.4","72.7","85.4","30.01","182","1.9","6","0.00","0.00"
"01:14:57","77.3","72.8","86","30.01","197","2.7","5","0.00","0.00"
"01:19:57","77.1","72.6","86","30.01","192","3","5","0.00","0.00"
"01:24:57","77.1","72.6","86","30.01","188","2.3","4.6","0.00","0.00"
"01:29:55","77","72.5","86","30.02","202","1.9","4","0.00","0.00"
"01:34:56","76.9","72.4","86","30.02","196","1","3.5","0.00","0.00"
"01:39:59","76.8","72.3","86","30.02","187","1.8","5","0.00","0.00"
"01:44:59","76.7","72.2","86","30.02","183","1.7","4","0.00","0.00"
"01:49:59","76.6","72.2","86.3","30.02","181","1","3.5","0.00","0.00"
"01:54:59","76.5","72.3","87","30.02","181","0.9","3","0.00","0.00"
"01:59:58","76.5","72.3","87","30.02","182","1.1","3.5","0.00","0.00"
"02:04:56","76.4","72.2","87","30.02","175","1.4","3.5","0.00","0.00"
"02:09:58","76.3","72.1","87","30.02","190","2.3","6","0.00","0.00"
"02:14:57","76.2","72","87","30.02","187","2.5","5","0.00","0.00"
"02:19:56","76.2","72","87","30.02","185","1.8","4.6","0.00","0.00"
"02:24:56","76.1","72.1","87.5","30.02","187","2.2","5","0.00","0.00"
"02:29:59","76","72.2","88","30.03","185","1.8","5","0.00","0.00"
"02:34:59","76","72.2","88","30.03","163","1.5","4","0.00","0.00"
"02:39:58","76","72.2","88","30.03","156","1.4","4","0.00","0.00"
"02:44:58","76","72.2","88","30.03","156","1","3","0.00","0.00"
"02:49:58","75.9","72.1","88","30.02","156","0.2","2","0.00","0.00"
"02:54:59","75.8","72","88","30.02","156","0.9","3.5","0.00","0.00"
"02:59:56","75.8","72","88","30.02","152","1.3","3.5","0.00","0.00"
"03:04:58","75.7","72","88.2","30.02","149","0.8","3.5","0.00","0.00"
"03:09:56","75.6","72.1","89","30.02","144","1.3","3.5","0.00","0.00"
"03:14:59","75.5","72","89","30.02","142","1.1","3.5","0.00","0.00"
"03:19:58","75.4","71.9","89","30.02","142","0.7","3.5","0.00","0.00"
"03:24:57","75.4","71.9","89","30.02","148","1.3","3.5","0.00","0.00"
"03:29:57","75.3","71.9","89.2","30.02","177","1.2","5","0.00","0.00"
"03:34:57","75.2","72.1","90","30.02","187","1.6","3.5","0.00","0.00"
"03:39:58","75.2","72.1","90","30.02","187","0.4","2.3","0.00","0.00"
"03:44:58","75.1","72","90","30.02","187","0.5","2.3","0.00","0.00"
"03:49:58","75","71.9","90.1","30.02","156","1.5","4","0.00","0.00"
"03:54:58","74.9","72.1","91","30.02","145","1.4","3.5","0.00","0.00"
"03:59:57","74.9","72.1","91","30.02","146","0.1","2.3","0.00","0.00"
"04:04:55","74.8","72","91","30.02","146","0","0","0.00","0.00"
"04:09:58","74.8","72","91","30.02","146","0","0","0.00","0.00"
"04:14:57","74.7","71.9","91","30.02","146","0","0","0.00","0.00"
"04:19:58","74.7","71.9","91","30.02","146","0","0","0.00","0.00"
"04:24:58","74.6","71.9","91.3","30.02","146","0.6","3.5","0.00","0.00"
"04:29:57","74.6","72.1","92","30.03","148","1.4","4","0.00","0.00"
"04:34:57","74.5","72","92","30.03","148","0.5","2.3","0.00","0.00"
"04:39:59","74.4","71.9","92","30.03","148","0.5","2.3","0.00","0.00"
"04:44:56","74.4","71.9","92","30.03","148","0.1","2.3","0.00","0.00"
"04:49:59","74.3","71.8","92","30.03","147","0.5","2.3","0.00","0.00"
"04:54:58","74.2","71.9","92.7","30.03","148","0.7","2.3","0.00","0.00"
"04:59:57","74.2","72","93","30.03","148","0.8","2.3","0.00","0.00"
"05:04:59","74.1","71.9","93","30.03","148","0.8","2.3","0.00","0.00"
"05:09:57","74.1","71.9","93","30.03","147","0.9","2.3","0.00","0.00"
"05:14:59","74","71.8","93","30.03","148","1","3.5","0.00","0.00"
"05:19:57","74","71.8","93","30.03","148","0.6","2.3","0.00","0.00"
"05:24:59","73.9","71.7","93","30.03","148","0.9","3","0.00","0.00"
"05:29:58","73.8","71.9","93.7","30.03","148","0.8","2.3","0.00","0.00"
"05:34:57","73.7","71.9","94","30.03","148","0.3","2.3","0.00","0.00"
"05:39:59","73.6","71.8","94","30.03","148","0.2","2.3","0.00","0.00"
"05:44:59","73.6","71.8","94","30.04","148","0","0","0.00","0.00"
"05:49:58","73.5","71.7","94","30.04","148","0.1","2","0.00","0.00"
"05:54:57","73.6","71.8","94","30.04","158","0.7","4","0.00","0.00"
"05:59:57","73.6","71.9","94.2","30.04","159","0.1","1.2","0.00","0.00"
"06:04:56","73.6","72.1","95","30.04","158","0","0","0.00","0.00"
"06:09:59","73.6","71.9","94.2","30.04","159","0","1","0.00","0.00"
"06:14:57","73.6","72.1","95","30.05","159","0.7","2.3","0.00","0.00"
"06:19:57","73.7","72.2","95","30.05","158","0.8","2.3","0.00","0.00"
"06:24:57","73.8","72.3","95","30.05","158","0.9","3.5","0.00","0.00"
"06:29:55","73.9","72.4","95","30.05","169","1.3","5","0.00","0.00"
"06:34:58","74","72.5","95","30.05","199","1.2","3.5","0.00","0.00"
"06:39:56","74.1","72.6","95","30.05","180","1.5","4","0.00","0.00"
"06:44:59","74.1","72.6","95","30.06","171","2.1","4","0.00","0.00"
"06:49:57","74.2","72.7","95","30.06","170","2.9","6","0.00","0.00"
"06:54:56","74.4","72.9","95","30.06","181","1.9","5","0.00","0.00"
"06:59:59","74.5","73","95","30.06","185","1.8","5","0.00","0.00"
"07:04:56","74.6","73.1","95","30.06","192","2.3","4","0.00","0.00"
"07:09:58","74.7","73.2","95","30.06","205","2.5","6","0.00","0.00"
"07:14:59","74.7","73.2","95","30.07","185","2.5","7","0.00","0.00"
"07:19:57","74.8","73.3","94.9","30.07","166","1.7","5.8","0.00","0.00"
"07:24:57","74.9","73.2","94.3","30.07","172","2.3","4","0.00","0.00"
"07:29:59","75","73.4","94.8","30.07","200","1.7","6","0.00","0.00"
"07:34:58","75.1","73.5","94.7","30.07","199","1","5","0.00","0.00"
"07:39:55","75.2","73.6","94.6","30.07","198","1.1","5","0.00","0.00"
"07:44:58","75.3","73.5","94","30.07","191","0.9","3.5","0.00","0.00"
"07:49:57","75.5","73.7","94","30.07","180","1.3","3.5","0.00","0.00"
"07:54:56","75.6","73.8","94","30.07","176","1.1","3.5","0.00","0.00"
"07:59:56","75.8","73.9","94","30.07","130","0.9","3","0.00","0.00"
"08:04:58","76","73.9","93.4","30.07","131","0.5","2.3","0.00","0.00"
"08:09:56","76.2","74.1","93.5","30.07","138","0.6","4","0.00","0.00"
"08:14:58","76.4","74.2","93","30.08","153","2.2","4","0.00","0.00"
"08:19:57","76.6","74.3","92.5","30.08","166","1.4","4","0.00","0.00"
"08:24:56","76.9","74.5","92.4","30.08","259","1.7","3.5","0.00","0.00"
"08:29:59","77.1","74.5","91.6","30.09","198","2.1","4","0.00","0.00"
"08:34:58","77.3","74.7","91.6","30.09","186","2.1","4","0.00","0.00"
"08:39:56","77.4","74.7","91.2","30.09","253","1.8","4","0.00","0.00"
"08:44:59","77.6","74.8","91.2","30.10","194","2.3","5","0.00","0.00"
"08:49:58","77.7","74.9","90.8","30.10","198","1.7","5","0.00","0.00"
"08:54:56","77.9","74.7","89.9","30.10","193","1.9","5","0.00","0.00"
"08:59:56","78","74.8","89.8","30.10","188","1.7","4.6","0.00","0.00"
"09:04:57","78.2","75.1","90.1","30.10","189","0.8","4","0.00","0.00"
"09:09:57","78.7","75.3","89.3","30.10","171","1.8","5","0.00","0.00"
"09:14:58","79.2","75.8","89.4","30.10","175","1.3","4.6","0.00","0.00"
"09:19:56","79.9","76.1","88.3","30.10","200","2.1","4","0.00","0.00"
"09:24:56","80.1","75.9","87","30.10","186","2.4","6","0.00","0.00"
"09:29:57","80.3","76","86.7","30.10","180","3.1","6","0.00","0.00"
"09:34:59","80.6","76.1","86.2","30.10","182","2.3","5","0.00","0.00"
"09:39:56","80.8","76.3","86.3","30.10","153","1.1","4","0.00","0.00"
"09:44:57","81.3","76.6","85.7","30.10","128","2.1","5","0.00","0.00"
"09:49:59","81.7","76.6","84.5","30.10","171","2.3","4.6","0.00","0.00"
"09:54:58","81.5","76.1","83.8","30.10","184","1.8","3.5","0.00","0.00"
"09:59:59","81.5","76.5","84.7","30.10","185","2.3","5","0.00","0.00"
"10:04:56","81.8","76.6","84.3","30.10","163","2.1","5","0.00","0.00"
"10:09:58","82.1","76.9","84.3","30.10","149","1.6","4","0.00","0.00"
"10:14:59","82.5","77.3","84.4","30.10","174","1.5","3.5","0.00","0.00"
"10:19:56","82.9","77.5","83.8","30.10","195","2.1","5","0.00","0.00"
"10:24:58","83.2","77.4","82.9","30.10","189","2","4","0.00","0.00"
"10:29:56","83.5","77.7","82.7","30.10","193","1.3","5","0.00","0.00"
"10:34:58","83.9","77.8","82.2","30.10","180","2.4","6","0.00","0.00"
"10:39:59","84.3","77.9","81.2","30.10","185","2.9","5","0.00","0.00"
"10:44:57","84.3","77.4","79.8","30.11","190","1.3","3.5","0.00","0.00"
"10:49:58","84.2","77.2","79.4","30.11","210","2","5","0.00","0.00"
"10:54:56","84.1","77.3","80.2","30.11","194","2.1","4","0.00","0.00"
"10:59:57","84","77.5","80.8","30.11","190","1.7","4","0.00","0.00"
"11:04:59","84.5","77.9","80.7","30.11","167","2","6","0.00","0.00"
"11:09:57","85","78","79.6","30.11","192","2.2","4","0.00","0.00"
"11:14:57","85.5","78.1","78.5","30.11","180","1.5","3.5","0.00","0.00"
"11:19:58","86.1","78.3","77.8","30.11","136","1.2","3.5","0.00","0.00"
"11:24:56","86.6","79.1","78.6","30.11","119","1.3","5","0.00","0.00"
"11:29:57","86.9","78.6","76.5","30.11","112","1.3","3.5","0.00","0.00"
"11:34:59","87","79.1","77.5","30.10","156","1.8","4","0.00","0.00"
"11:39:59","87.2","78.2","74.6","30.10","132","1.1","3.5","0.00","0.00"
"11:44:55","87.4","78.7","75.5","30.10","175","0","1.2","0.00","0.00"
"11:49:58","87.7","78.7","74.8","30.10","165","1.3","4","0.00","0.00"
"11:54:55","87.9","78.2","73.1","30.10","167","1.8","4","0.00","0.00"
"11:59:57","88.1","77.9","72","30.10","240","0.6","3.5","0.00","0.00"
"12:04:59","88.4","78.5","72.9","30.10","198","1.2","5","0.00","0.00"
"12:09:58","88.8","78.8","72.5","30.10","141","1.5","4.6","0.00","0.00"
"12:14:59","88.9","78.4","71.3","30.10","138","1.1","4","0.00","0.00"
"12:19:56","88.6","77.7","70.4","30.10","203","1.7","4","0.00","0.00"
"12:24:58","88.5","77.8","70.8","30.10","231","2","5","0.00","0.00"
"12:29:59","89","78.9","72.2","30.10","142","1.1","4","0.00","0.00"
"12:34:56","89.4","78.7","70.7","30.10","186","2.5","6","0.00","0.00"
"12:39:57","89.5","77.7","68.3","30.10","162","1.9","4","0.00","0.00"
"12:44:58","89.7","78.2","69.1","30.10","157","1.7","6","0.00","0.00"
"12:49:59","89.9","78.6","69.5","30.10","103","1.5","5.8","0.00","0.00"
"12:54:57","89.9","77.9","68","30.10","129","1.4","6","0.00","0.00"
"12:59:58","90","77.6","67","30.10","139","1.8","6","0.00","0.00"
"13:04:59","90.2","78.9","69.6","30.10","149","1.7","5","0.00","0.00"
"13:09:58","90.5","77.4","65.6","30.10","164","2","5","0.00","0.00"
"13:14:59","90.8","77.6","65.5","30.10","167","2","5","0.00","0.00"
"13:19:58","91","77.7","65.1","30.10","158","1.6","4.6","0.00","0.00"
"13:24:57","91.4","77.4","64","30.10","189","2.7","9","0.00","0.00"
"13:29:58","91.4","76.5","62","30.10","198","3.8","7","0.00","0.00"
"13:34:59","91.5","76.6","62.1","30.10","174","2.5","7","0.00","0.00"
"13:39:56","91.6","76.4","61.3","30.10","132","1.8","7","0.00","0.00"
"13:44:58","91.8","77.5","63.4","30.10","198","3.3","7","0.00","0.00"
"13:49:55","91.9","77.7","63.4","30.09","201","3.1","6.9","0.00","0.00"
"13:54:58","92","76.2","60.2","30.09","189","2.5","6","0.00","0.00"
"13:59:59","92.1","76.2","60.1","30.09","173","2.6","6","0.00","0.00"
"14:04:56","92.1","76.2","60","30.08","188","2.4","5","0.00","0.00"
"14:09:58","92","77.3","62.3","30.08","199","2.2","6","0.00","0.00"
"14:14:58","92.7","77.7","62.1","30.08","206","2.1","6","0.00","0.00"
"14:19:59","92.9","77.4","60.7","30.08","148","3","6","0.00","0.00"
"14:24:57","93","77.6","61","30.08","135","2.4","6","0.00","0.00"
"14:29:58","92.8","77.8","61.8","30.08","185","3.1","7","0.00","0.00"
"14:34:59","92.4","77.6","62.1","30.08","168","3.1","8","0.00","0.00"
"14:39:55","92.2","77.7","62.8","30.08","182","4.5","8.1","0.00","0.00"
"14:44:56","92.1","77.8","63.3","30.08","140","2.4","5","0.00","0.00"
"14:49:58","92.4","77.7","62.5","30.07","137","2.6","10.4","0.00","0.00"
"14:54:56","92.5","77.4","61.5","30.07","178","4.2","11.5","0.00","0.00"
"14:59:57","92.2","77.5","62.4","30.07","168","3.3","11.5","0.00","0.00"
"15:04:58","92.3","78.5","64.2","30.05","193","4.6","11.5","0.00","0.00"
"15:09:59","92.3","78.1","63.4","30.05","170","3.9","7","0.00","0.00"
"15:14:56","92.5","77.6","62.1","30.05","131","3.5","6.9","0.00","0.00"
"15:19:59","92.9","78.9","64.1","30.05","175","3.1","7","0.00","0.00"
"15:24:57","92.8","77.1","60.4","30.05","171","4.6","11.5","0.00","0.00"
"15:29:56","92.2","77.1","61.6","30.07","193","4.4","10.4","0.00","0.00"
"15:34:58","92.6","77.4","61.5","30.07","163","3.4","7","0.00","0.00"
"15:39:58","93","77.6","61.1","30.07","161","2.9","6","0.00","0.00"
"15:44:56","92.6","77.8","62.3","30.07","199","4.4","9.2","0.00","0.00"
"15:49:57","92","77.2","62.1","30.07","172","3.2","7","0.00","0.00"
"15:54:59","91.6","76.7","62.1","30.07","157","2.5","7","0.00","0.00"
"15:59:58","91","76.9","63.7","30.07","159","2.3","6.9","0.00","0.00"
"16:04:59","90.4","76.6","64.2","30.07","173","2.9","7","0.00","0.00"
"16:09:57","90.1","76.6","64.7","30.07","187","3.1","7","0.00","0.00"
"16:14:58","89.9","76.5","65","30.08","189","2.2","4.6","0.00","0.00"
"16:19:55","90.1","77.4","66.3","30.08","164","1.8","6","0.00","0.00"
"16:24:57","90.8","77.6","65.3","30.08","183","3.8","7","0.00","0.00"
"16:29:55","91.4","77.1","63.2","30.08","193","3","6","0.00","0.00"
"16:34:58","91.6","77.7","64.1","30.08","184","2.8","7","0.00","0.00"
"16:39:58","91.5","78.1","65.1","30.08","187","2.5","5","0.00","0.00"
"16:44:59","92.2","78.3","64.1","30.08","203","3.5","7","0.00","0.00"
"16:49:58","92.5","77.7","62.4","30.07","193","3","9","0.00","0.00"
"16:54:56","92","77.9","63.6","30.07","215","2.5","9.2","0.00","0.00"
"16:59:57","91.9","78","64.2","30.07","210","2.7","6","0.00","0.00"
"17:04:58","92.1","77.5","62.7","30.07","203","3.6","6","0.00","0.00"
"17:09:59","92.5","77.6","61.9","30.07","196","3.6","8.1","0.00","0.00"
"17:14:58","92.8","78.1","62.5","30.07","210","3.1","6","0.00","0.00"
"17:19:59","93.2","77.9","61.4","30.06","182","3.7","11.5","0.00","0.00"
"17:24:56","93.3","77.7","60.7","30.06","197","4.3","12","0.00","0.00"
"17:29:57","93.1","77.7","61.2","30.07","196","3.3","6.9","0.00","0.00"
"17:34:58","93.1","77.9","61.5","30.07","195","2.5","7","0.00","0.00"
"17:39:59","92.6","77.3","61.1","30.07","317","2.6","6","0.00","0.00"
"17:44:59","91.3","76.9","63","30.07","326","2.9","5","0.00","0.00"
"17:49:56","90.6","76.9","64.5","30.07","331","1.8","4","0.00","0.00"
"17:54:58","90.6","77.7","66","30.07","333","1.6","4","0.00","0.00"
"17:59:58","90.6","77.2","65","30.07","7","1.6","4","0.00","0.00"
"18:04:59","90.5","77.1","64.9","30.06","355","1.8","4","0.00","0.00"
"18:09:57","90.6","77","64.6","30.06","355","0.6","3","0.00","0.00"
"18:14:58","90.6","77.5","65.5","30.07","355","1.5","4","0.00","0.00"
"18:19:59","90.9","77.5","64.8","30.07","4","0.5","3","0.00","0.00"
"18:24:57","90.5","77.1","65","30.07","5","0.8","2.3","0.00","0.00"
"18:29:58","89.9","76.8","65.5","30.07","12","1.1","3.5","0.00","0.00"
"18:34:56","89.3","77.1","67.3","30.07","47","0.9","3.5","0.00","0.00"
"18:39:57","88.8","76.6","67.3","30.07","65","0.9","3","0.00","0.00"
"18:44:59","88.5","75.5","65.6","30.07","102","1.2","5","0.00","0.00"
"18:49:56","87.8","75.2","66.5","30.07","106","1.4","4.6","0.00","0.00"
"18:54:58","87.1","75","67.6","30.07","80","0.9","3.5","0.00","0.00"
"18:59:59","86.5","75.2","69.2","30.07","54","0.9","3.5","0.00","0.00"
"19:04:56","86.4","75.1","69.3","30.07","54","0.8","2.3","0.00","0.00"
"19:09:58","86.3","75.4","70","30.07","99","1.3","3.5","0.00","0.00"
"19:14:59","86.3","75.5","70.2","30.07","115","1.7","4","0.00","0.00"
"19:19:56","86.3","75.7","70.6","30.07","115","0.4","2.3","0.00","0.00"
"19:24:58","86.3","75.8","71.2","30.07","115","0.4","1.2","0.00","0.00"
"19:29:59","86.2","76.2","72.5","30.08","53","1.3","3.5","0.00","0.00"
"19:34:57","85.8","75.8","72.2","30.08","355","1.5","3.5","0.00","0.00"
"19:39:57","85.6","75.6","72.2","30.08","9","0.6","3.5","0.00","0.00"
"19:44:59","85.4","75.8","73","30.08","355","0.1","1.2","0.00","0.00"
"19:49:57","85.2","75.7","73.3","30.08","355","0.6","2.3","0.00","0.00"
"19:54:58","85","75.8","74","30.08","342","0.5","3.5","0.00","0.00"
"19:59:59","84.7","75.5","74.1","30.08","338","0.2","3.5","0.00","0.00"
"20:04:57","84.5","75.8","75.2","30.08","343","0.1","1.2","0.00","0.00"
"20:09:59","84.2","75.6","75.5","30.08","36","0.3","1.2","0.00","0.00"
"20:14:56","84","75.3","75.3","30.09","92","0","1.2","0.00","0.00"
"20:19:59","83.9","76","77.2","30.09","92","0","0","0.00","0.00"
"20:24:57","83.6","75.9","77.7","30.09","92","0","0","0.00","0.00"
"20:29:55","83.3","75.4","77.2","30.09","87","0.5","2.3","0.00","0.00"
"20:34:58","83.2","75.3","77.3","30.09","87","1","2.3","0.00","0.00"
"20:39:59","83.1","75.5","78","30.09","82","0.8","2.3","0.00","0.00"
"20:44:58","83","75.4","78","30.10","81","0.1","1.2","0.00","0.00"
"20:49:57","82.9","75.5","78.5","30.10","81","0","1.2","0.00","0.00"
"20:54:56","82.7","75.8","79.6","30.10","26","0","0","0.00","0.00"
"20:59:59","82.5","75.7","80","30.10","26","0","0","0.00","0.00"
"21:04:57","82.3","75.6","80.4","30.10","26","0","0","0.00","0.00"
"21:09:56","82","75.6","81","30.10","26","0","0","0.00","0.00"
"21:14:59","81.7","75.6","81.7","30.11","26","0","0","0.00","0.00"
"21:19:58","81.3","75.5","82.5","30.11","26","0","0","0.00","0.00"
"21:24:56","81.1","75.4","83.1","30.11","26","0","0","0.00","0.00"
"21:29:59","80.8","75.6","84.2","30.12","26","0","0","0.00","0.00"
"21:34:58","80.6","75.7","85","30.12","26","0","0","0.00","0.00"
"21:39:57","80.6","76","85.9","30.12","26","0","0","0.00","0.00"
"21:44:57","80.6","76","86","30.13","26","0","0","0.00","0.00"
"21:49:59","80.6","76","86","30.13","26","0.1","2","0.00","0.00"
"21:54:58","80.5","75.9","86","30.13","26","0","0","0.00","0.00"
"21:59:56","80.5","76.1","86.5","30.13","26","0.3","1.2","0.00","0.00"
"22:04:58","80.5","76.3","87","30.13","26","0","0","0.00","0.00"
"22:09:57","80.5","76.3","87","30.13","26","0","0","0.00","0.00"
"22:14:59","80.5","76.1","86.6","30.13","143","0.6","4","0.00","0.00"
"22:19:57","80.6","75.8","85.6","30.13","137","0.9","4","0.00","0.00"
"22:24:57","80.9","75.4","83.6","30.13","158","2.2","6","0.00","0.00"
"22:29:59","81.4","75","81","30.13","166","2.3","5","0.00","0.00"
"22:34:56","81.8","75","79.9","30.13","168","1.8","5","0.00","0.00"
"22:39:58","82.1","74.8","78.7","30.13","172","1.6","5","0.00","0.00"
"22:44:56","82.3","74.7","78","30.13","181","2","5","0.00","0.00"
"22:49:58","82.3","74.7","78","30.12","180","1.8","4","0.00","0.00"
"22:54:57","82.3","74.5","77.3","30.12","164","2","4","0.00","0.00"
"22:59:59","82.3","74.4","77","30.12","177","2","5","0.00","0.00"
"23:04:57","82.3","74.4","77","30.12","166","1.3","5","0.00","0.00"
"23:09:59","82.2","74.3","77","30.12","165","1.7","4.6","0.00","0.00"
"23:14:57","82","74.1","77","30.12","173","0.5","2","0.00","0.00"
"23:19:59","81.9","74.1","77.2","30.11","173","0.8","3","0.00","0.00"
"23:24:58","81.8","74.1","77.6","30.11","173","1","3.5","0.00","0.00"
"23:29:59","81.6","74.1","78","30.12","172","1.2","3.5","0.00","0.00"
"23:34:57","81.6","73.9","77.4","30.12","170","1.9","3.5","0.00","0.00"
"23:39:56","81.6","73.8","77.2","30.12","152","1.5","5","0.00","0.00"
"23:44:58","81.5","73.9","77.8","30.12","152","0.9","3.5","0.00","0.00"
"23:49:56","81.3","73.8","78","30.12","159","1.4","4","0.00","0.00"
"23:54:58","81","73.8","78.7","30.12","162","0.7","3.5","0.00","0.00"
"23:59:56","80.8","73.7","79","30.12","163","0.3","3.5","0.00","0.00"
